Welcome to the New NWS' Forecast!
Most changes are behind the scenes, but click here for differences you might notice.
Latest weather observations around

Troy, Troy Municipal Airport (KTOI)

Using International System of Units (Switch to English Units)
Date/ Time (CDT) Wind (kph) Vis. (km) Weather Sky Cond. Temp (°C) Rel. Humidity Wind Chill (°C) Heat Index (°C) Pressure Precip. (cm)
Air Dwpt 6 hour Altimeter (hPa) Sea level (hPa) 1 hr 3 hr 6 hr
Max Min
Oct 17 23:53 NNE 11 16.09 Clear CLR 18 11     65%     1025.1 1024.6      
Oct 17 22:53 NNE 11 16.09 Clear CLR 19 13     70%     1025.1 1024.7      
Oct 17 21:53 NNE 15 16.09 Clear CLR 20 17     81%     1024.7 1024.4      
Oct 17 20:53 N 17 16.09 Clear   21 18     84%     1024.4 1024      
Oct 17 19:53 N 11 16.09 Clear CLR 21 19     87%     1023.7 1023.3      
Oct 17 18:53 N 9 16.09 Clear CLR 22 19     82%   23 1023.4 1022.8      
Oct 17 17:53 N 11 16.09 Clear CLR 24 19     76%   24 1022.4 1022      
Oct 17 16:53 NNW 9 16.09 Mostly Clear FEW031 26 19     67%   27 1022 1021.6      
Oct 17 16:34 N 11 16.09 Cloudy OVC030 25 19     71%   25 1022        
Oct 17 15:53 N 17 16.09 Cloudy OVC029 26 19     69%   26 1022 1021.5      
Oct 17 14:53 N 21 16.09 Cloudy OVC027 26 20     71%   26 1022 1021.5      
Oct 17 14:11 NNW 15 16.09 Mostly Cloudy BKN028 27 20     67%   28 1022        
Oct 17 13:53 NNE 9 16.09 Mostly Clear FEW026 27 20     67%   28 1022 1021.5      
Oct 17 12:53 9 16.09 Cloudy SCT021 OVC034 26 20     71%   26 1022.7 1022.2      
Oct 17 11:53 N 17 16.09 Cloudy OVC016 24 20     76%   25 1023.7 1023      
Oct 17 11:30 N 18 16.09 Cloudy OVC015 24 20     76%   25 1023.4        
Oct 17 10:53 N 11 16.09 Cloudy OVC013 24 21     82%   24 1023.4 1022.8      
Oct 17 10:03 N 11 16.09 Cloudy OVC010 23 21     87%   23 1023        
Oct 17 09:53 NNE 13 16.09 Cloudy OVC008 23 21     87%   23 1023 1022.4      
Oct 17 08:53 N 15 14.48 Cloudy OVC007 22 21     93%   22 1022.7 1022.3      
Oct 17 08:33 NNE 17 14.48 Cloudy OVC007 22 21     93%   22 1022.7        
Oct 17 07:53 N 11 12.87 Cloudy OVC006 22 21     93%   22 1022.4 1021.8      
Oct 17 07:22 N 9 9.66 Fog/Mist OVC005 21 21     97%     1022        
Oct 17 06:53 N 13 9.66 Fog/Mist OVC004 21 21     97%     1022 1021.3      
Oct 17 06:33 N 8 9.66 Fog/Mist OVC003 21 21     100%     1021.7        
Oct 17 06:15 NNW 9 6.44 Fog/Mist OVC002 21 21     97%     1021.7        
Oct 17 06:02 N 9 3.22 Fog/Mist OVC002 21 21     100%     1021.3        
Oct 17 05:57 N 9 2.41 Fog/Mist OVC002 21 21     100%     1021.3        
Oct 17 05:53 N 9 2.01 Fog/Mist OVC003 21 21     100%     1021.3 1020.8      
Oct 17 05:49 N 8 2.82 Fog/Mist OVC003 21 21     100%     1021.3        
Oct 17 05:36 NNW 5 9.66 Fog/Mist OVC003 21 21     100%     1021        
Oct 17 04:53 Calm 4.83 Fog/Mist OVC002 21 21     97%     1020.7 1020      
Oct 17 04:24 NE 5 4.83 Fog/Mist BKN002 21 21     97%     1020.3        
Oct 17 04:17 ENE 5 4.83 Fog/Mist BKN003 21 21     97%     1020.3        
Oct 17 03:53 Calm 8.05 Fog/Mist FEW004 21 21     100%     1020 1019.6      
Oct 17 03:40 Calm 4.83 Fog/Mist FEW004 21 21     100%     1020.3        
Oct 17 03:36 Calm 3.22 Fog/Mist CLR 20 20     100%     1020        
Oct 17 03:34 Calm 2.41 Fog/Mist CLR 20 20     100%     1020        
Oct 17 03:24 Calm 1.61 Fog/Mist CLR 21 21     100%     1020        
Oct 17 03:22 Calm 2.41 Fog/Mist CLR 21 21     100%     1020        
Oct 17 03:14 Calm 3.22 Fog/Mist CLR 21 21     100%     1020        
Oct 17 02:53 Calm 11.27 Clear CLR 22 21     96%   22 1020.3 1019.6      
Oct 17 01:53 NNW 5 12.87 Clear CLR 22 21     96%   22 1020.3 1019.8      
Oct 17 00:53 Calm 12.87 Clear CLR 22 22     97%   23 1020.3 1019.6      
Oct 16 22:53 N 5 16.09 Mostly Clear FEW035 23 22     94%   24 1020.7 1020      
Oct 16 21:53 Calm 9.66 Fog/Mist FEW049 22 22     100%   23 1020.3 1019.7      
Oct 16 20:53 Calm 14.48 Clear CLR 23 23     97%   24 1020 1019.3      
Oct 16 19:53 Calm 16.09 Clear CLR 24 23     94%   25 1019.7 1018.9      
Oct 16 18:53 NNW 5 16.09 Clear   25 23     88%   26 1019 1018.5      
Oct 16 17:53 Calm 16.09 Clear CLR 27 24     85%   29 1018.3 1017.8      
Oct 16 16:53 5 16.09 Mostly Clear FEW037 29 22     65%   32 1018.3 1017.6      
Oct 16 15:53 SW 11 16.09 Partly Cloudy FEW041 SCT055 30 22     61%   33 1018.3 1017.7      
Oct 16 14:53 SW 11 16.09 Mostly Cloudy FEW039 BKN050 29 21     59%   32 1018.3 1017.8      
Oct 16 13:53 SSW 9 16.09 Mostly Clear FEW038 29 21     61%   32 1018.6 1018      
Oct 16 12:53 9 16.09 Partly Cloudy SCT034 30 22     63%   33 1019.3 1018.8      
Oct 16 11:53 8 16.09 Mostly Clear FEW025 29 23     70%   32 1020.3 1019.5      
Oct 16 11:29 SSW 15 16.09 Mostly Clear FEW022 28 22     70%   31 1020.3        
Oct 16 10:53 Calm 16.09 Mostly Cloudy BKN019 28 23     74%   31 1020.7 1020.2      
Oct 16 10:02 Calm 16.09 Partly Cloudy SCT004 SCT047 26        %     1021        
Oct 16 09:53 Calm 14.48 Mostly Cloudy BKN004 25        %     1021 1020.5      
Oct 16 09:43 Calm 12.87 Mostly Cloudy BKN004 24        %     1021        
Oct 16 09:18 Calm 4.83 Fog/Mist OVC002 23 23     100%   24 1021        
Oct 16 09:15 Calm 2.82 Fog/Mist OVC002 23 23     100%   24 1020.7        
Oct 16 09:13 Calm 1.61 Fog/Mist OVC002 23 23     100%   24 1020.7        
Oct 16 08:53 Calm 0.4 Fog VV002 22 22     100%   23 1020.7 1020.2      
Oct 16 07:53 Calm 0.4 Fog VV002 21        %     1020.3 1019.7      
Oct 16 07:19 Calm 0.4 Fog OVC002 21        %     1020        
Oct 16 07:01 Calm 1.21 Fog/Mist OVC002 19 19     100%     1020        
Oct 16 06:53 Calm 0.4 Fog VV003 19        %     1020 1019.4      
Oct 16 06:31 Calm 0.8 Fog VV003 20 20     100%     1020        
Oct 16 06:12 Calm 0.8 Fog VV002 19 19     100%     1020        
Oct 16 06:09 Calm 1.21 Fog/Mist VV003 19 19     100%     1020        
Oct 16 06:01 Calm 2.41 Fog/Mist FEW003 19 19     100%     1020        
Oct 16 05:58 Calm 1.61 Fog/Mist VV003 19 19     100%     1020        
Oct 16 05:53 Calm 0.8 Fog VV003 19 19     100%     1019.7 1019.3      
Oct 16 05:50 WNW 5 0.8 Fog VV003 19 19     100%     1019.7        
Oct 16 05:46 NW 5 1.61 Fog/Mist VV003 20 20     100%     1019.7        
Oct 16 05:44 Calm 2.82 Fog/Mist SCT003 20 20     100%     1019.7        
Oct 16 05:40 Calm 6.44 Fog/Mist SCT002 20 20     100%     1019.7        
Oct 16 05:33 Calm 3.22 Fog/Mist BKN002 19 19     100%     1019.7        
Oct 16 05:31 Calm 2.41 Fog/Mist BKN002 20 20     100%     1019.7        
Oct 16 05:21 Calm 1.61 Fog/Mist VV002 20 20     100%     1019.7        
Oct 16 04:53 Calm 0.8 Fog VV002 20 20     100%     1019.3 1018.9      
Oct 16 04:40 Calm 0.8 Fog VV002 20 20     100%     1019.3        
Oct 16 04:36 Calm 1.61 Fog/Mist VV003 20 20     100%     1019.3        
Oct 16 04:31 Calm 2.41 Fog/Mist SCT003 21 21     100%     1019.3        
Oct 16 04:24 Calm 1.61 Fog/Mist VV003 21 21     100%     1019.3        
Oct 16 04:16 Calm 0.8 Fog VV003 21 21     100%     1019.3        
Oct 16 03:53 Calm 0.8 Fog VV002 21        %     1019 1018.5      
Oct 16 02:53 Calm 0.4 Fog VV002 22 22     100%   23 1019.3 1018.6      
Oct 16 02:44 Calm 0.4 Fog CLR 21 21     100%     1019.3        
Oct 16 01:53 Calm 0.4 Fog VV002 22 22     100%   23 1019.7 1018.9      
Oct 16 01:38 Calm 0.4 Fog VV002 22 22     100%   23 1019.7        
Oct 16 01:31 Calm 0.8 Fog CLR 22 22     100%   23 1019.7        
Oct 16 01:29 Calm 1.61 Fog/Mist CLR 22 22     100%   23 1019.7        
Oct 16 01:22 Calm 3.22 Fog/Mist CLR 22 22     100%   23 1019.7        
Oct 16 01:05 Calm 4.83 Fog/Mist CLR 22 22     100%   23 1020        
Oct 16 00:56 Calm 2.41 Fog/Mist CLR 22 22     100%   23 1019.7        
Oct 16 00:53 Calm 4.02 Fog/Mist CLR 22 22     100%   23 1019.7 1019.1 0   1
Oct 16 00:07 WNW 5 8.05 Light Rain and Fog/Mist SCT047 OVC070 23 23     100%   24 1020.3   0    
Oct 15 23:53 Calm 3.22 Rain and Fog/Mist BKN047 OVC075 23 23     100%   24 1020.3 1019.8 1    
Oct 15 23:50 Calm 3.22 Heavy Rain and Fog/Mist BKN049 OVC075 23 22     94%   24 1020.3   1    
Oct 15 23:40 S 13 2.41 Heavy Rain and Fog/Mist BKN049 BKN075 OVC100 23 23     100%   24 1020.3   1    
Oct 15 23:31 S 15 3.22 Heavy Rain and Fog/Mist FEW034 BKN075 OVC100 23 23     100%   24 1020.3   0    
Oct 15 22:53 WSW 13 14.48 Light Rain FEW048 BKN100 BKN120 23 22     94%   24 1020.3 1019.7 0    
Oct 15 21:53 NE 9 16.09 Cloudy SCT070 OVC100 24 22     85%   25 1020 1019.3      
Oct 15 20:53 NE 11 16.09 Mostly Clear FEW070 25 22     82%   26 1019.7 1019.2      
Oct 15 19:53 WNW 8 16.09 Mostly Cloudy BKN055 BKN100 24 23     91%   25 1019.7 1019.1      
Oct 15 18:53 Calm 16.09 Clear CLR 26 23     87%   26 1019 1018.4      
Oct 15 17:53 Calm 16.09 Mostly Cloudy BKN095 27 24     85%   29 1018.3 1017.9      
Oct 15 16:53 Calm 16.09 Mostly Cloudy SCT080 BKN100 29 22     63%   32 1018.3 1017.9      
Oct 15 15:53 5 16.09 Clear CLR 30 22     61%   33 1018.3 1017.7      
Oct 15 14:53 11 16.09 Partly Cloudy SCT095 31 21     57%   33 1018.3 1017.8      
Oct 15 13:53 S 11 16.09 Clear CLR 30 22     61%   33 1018.6 1018.1      
Oct 15 12:53 SSW 15 16.09 Mostly Cloudy FEW031 SCT043 BKN050 30 22     61%   33 1019.3 1018.9      
Oct 15 11:53 SSW 13 16.09 Partly Cloudy FEW026 SCT050 28 22     70%   31 1020 1019.5      
Oct 15 10:53 SSE 17 16.09 Partly Cloudy FEW020 FEW025 SCT060 28 22     72%   30 1020.3 1019.9      
Oct 15 09:53 S 11 16.09 Mostly Cloudy FEW011 BKN065 25 22     82%   26 1020.7 1020.1      
Oct 15 09:21 SSE 11 16.09 Mostly Cloudy SCT009 BKN060 23 21     87%   24 1020.3        
Oct 15 08:53 S 11 16.09 Cloudy OVC007 22 21     91%   23 1020.3 1019.8      
Oct 15 08:06 Calm 16.09 Mostly Cloudy BKN008 21 19     90%     1020        
Oct 15 07:53 Calm 16.09 Clear CLR 21 18     87%     1019.7 1019.2      
Oct 15 07:19 Calm 16.09 Partly Cloudy SCT023 19 17     87%     1019.3        
Oct 15 07:08 Calm 16.09 Mostly Cloudy BKN023 19 17     87%     1019.3        
Oct 15 06:53 5 16.09 Mostly Clear FEW022 19 17     87%     1019.3 1018.8      
Oct 15 05:53 Calm 16.09 Partly Cloudy FEW021 SCT049 18 16     90%     1019 1018.6      
Oct 15 04:53 Calm 16.09 Clear CLR 17 16     90%     1018.6 1018.1      
Oct 15 03:53 Calm 16.09 Mostly Clear FEW045 17 16     96%     1018.6 1018      
Oct 15 02:53 Calm 16.09 Clear CLR 18 16     90%     1019 1018.3      
Oct 15 01:53 Calm 16.09 Clear CLR 18 17     90%     1018.6 1018.1      
Oct 15 00:53 ESE 5 16.09 Clear CLR 19 16     81%     1018.3 1017.8      
Oct 14 23:53 SE 11 16.09 Clear   21 16     73%     1018.6 1017.9      
Oct 14 22:53 E 5 16.09 Clear CLR 20 17     81%     1018.6 1018.2      
Oct 14 21:53 Calm 16.09 Clear CLR 20 18     87%     1019 1018.4      
Oct 14 20:53 E 8 16.09 Clear CLR 21 18     81%     1018.3 1017.9      
Oct 14 19:53 Calm 16.09 Clear CLR 21 19     90%     1018.3 1017.7      
Oct 14 18:53 Calm 16.09 Clear CLR 22 19     84%   23 1017.6 1017.1      
Oct 14 17:53 Calm 16.09 Clear CLR 26 19     69%   26 1016.9 1016.5      
Oct 14 16:53 S 8 16.09 Clear CLR 29 16     46%   29 1016.9 1016.4      
Oct 14 15:53 SSE 11 16.09 Clear CLR 29 16     46%   29 1016.9 1016.3      
Oct 14 14:53 SSE 13 16.09 Clear CLR 29 14     40%   29 1016.6 1016.1      
Oct 14 13:53 SW 8 16.09 Clear CLR 29 14     41%   29 1016.9 1016.3      
Oct 14 12:53 SSW 11 16.09 Mostly Cloudy BKN110 28 14     44%   28 1017.6 1017.1      
Oct 14 11:53 S 15 16.09 Clear CLR 28 16     47%   28 1018 1017.7      
Oct 14 10:53 SSE 11 16.09 Clear CLR 26 15     50%   26 1018.6 1018.3      
Oct 14 09:53 5 16.09 Clear CLR 24 17     62%   25 1018.6 1018.2      
Oct 14 08:53 Calm 16.09 Clear CLR 21 16     71%     1018.6 1018.2      
Oct 14 07:53 Calm 16.09 Clear CLR 17 15     87%     1017.6 1017.2      
Oct 14 06:53 Calm 16.09 Clear CLR 16 14     90%     1017.3 1016.8      
Oct 14 05:53 Calm 16.09 Clear CLR 15 14     93%     1016.9 1016.6      
Oct 14 04:53 NNW 8 16.09 Mostly Clear FEW110 16 14     93%     1016.9 1016.3      
Oct 14 03:53 ESE 5 16.09 Clear CLR 14 14     100%     1016.3 1015.9      
Oct 14 02:53 E 5 16.09 Clear CLR 14 14     97%     1015.6 1015.1      
Oct 14 01:53 Calm 16.09 Clear CLR 16 14     93%     1015.6 1015      
Oct 14 00:53 SE 9 16.09 Clear CLR 15 14     96%     1015.2 1014.8      
Oct 13 23:53 Calm 16.09 Clear CLR 16 16     97%     1015.9 1015.5      
Oct 13 22:53 Calm 16.09 Clear CLR 16 16     97%     1016.6 1016.1      
Oct 13 21:53 Calm 16.09 Clear CLR 17 16     93%     1016.6 1016.2      
Oct 13 20:53 Calm 16.09 Clear CLR 17 16     93%     1015.9 1015.5      
Oct 13 19:53 Calm 16.09 Clear CLR 19 16     84%     1015.2 1014.9      
Oct 13 18:53 Calm 16.09 Clear CLR 19 17     87%     1014.2 1013.9      
Oct 13 17:53 ENE 5 16.09 Clear CLR 24 14     55%   24 1014.2 1013.7      
Oct 13 16:53 Calm 16.09 Clear CLR 26 12     42%   25 1013.9 1013.5      
Oct 13 15:53 5 16.09 Clear CLR 26 12     41%   26 1013.9 1013.4      
Oct 13 14:53 8 16.09 Clear CLR 27 12     41%   26 1013.9 1013.6      
Oct 13 13:53 Calm 16.09 Clear CLR 26 12     41%   26 1014.6 1014.1      
Oct 13 12:53 NNW 8 16.09 Clear CLR 26 11     40%   25 1015.6 1015.1      
Oct 13 11:53 Calm 16.09 Clear CLR 24 11     43%   23 1016.3 1015.8      
Oct 13 10:53 N 11 16.09 Clear CLR 23 11     46%   23 1016.3 1015.9      
Oct 13 09:53 8 16.09 Mostly Clear FEW075 22 13     57%   21 1016.3 1016      
Oct 13 08:53 N 9 16.09 Partly Cloudy SCT065 18 12     68%     1015.9 1015.6      
Oct 13 06:53 Calm 16.09 Clear CLR 12 11     96%     1015.2 1015      
Oct 13 05:53 Calm 16.09 Clear CLR 12 11     96%     1014.6 1014.4      
Oct 13 04:53 Calm 16.09 Mostly Clear FEW080 12 11     96%     1014.2 1013.9      
Oct 13 01:53 Calm 16.09 Clear CLR 13 12     96%     1013.9 1013.5      
Oct 12 18:53 Calm 16.09 Clear CLR 17 13     78%     1012.5 1012.3      
Oct 12 17:53 Calm 16.09 Clear CLR 22 12     53%   21 1012.5 1012.1      
Oct 12 16:53 N 13 16.09 Clear CLR 24 10     41%   23 1012.5 1012.1      
Oct 12 15:53 NNW 13 16.09 Clear CLR 24 10     40%   24 1012.5 1011.9      
Oct 11 16:53 NW 15 16.09 Clear CLR 26 16     54%   26 1011.2 1010.7      
Oct 11 12:53 WNW 18 16.09 Partly Cloudy SCT028 26 19     67%   26 1011.9 1011.3      
Oct 11 11:53 WNW 13 16.09 Mostly Cloudy BKN024 24 19     76%   24 1012.2 1011.8      
Oct 11 09:31 W 11 16.09 Cloudy OVC015 22 21     91%   23 1011.9        
May 15 10:53 NE 13 16.09 Mostly Cloudy SCT030 SCT045 BKN075 27 19     61%   28 1015.6 1015.2      
May 15 08:53 E 9 16.09 Clear CLR 24 19     74%   25 1015.2 1014.6      
May 15 07:53 E 11 16.09 Partly Cloudy SCT120 22 19     84%   23 1015.2 1014.6      
May 14 23:53 Calm 14.48 Clear CLR 18 18     97%     1014.9 1014.3      
May 13 06:53 Calm 9.66 Fog/Mist CLR 17 17     97%     1019.7 1019.2      
Jun 12 06:39 5 16.09 Mostly Clear FEW002 22 22     100%   23 1021        
Jun 12 05:53 Calm 16.09 Mostly Clear FEW011 21 21     100%     1020.7 1020.1      
Jun 11 21:53 SSW 5 14.48 Cloudy OVC100 23 21     87%   24 1021 1020.3 0 0  
Jun 11 20:00 Calm 16.09 Cloudy OVC070 24 23     96%   25 1019.7        
Notice The following observation data may not be complete
Jun 11 07:13   16.09 Partly Cloudy SCT016          %              
Jun 10 12:53 ESE 15 16.09 Mostly Cloudy FEW050 BKN075 31 18     46%   31 1018.6 1018      
Jun 10 04:53 Calm 16.09 Clear CLR 17 17     100%     1016.3 1015.8      
Jun 09 15:53   16.09 Clear CLR 30 16     42%   30 1013.6 1013.1      
Jun 08 12:53 9 16.09 Mostly Clear FEW040 27 17     53%   28 1012.9 1012.1      
Jun 08 09:53 8 16.09 Clear CLR 23 17     68%   23 1012.9 1012.4      
Jun 08 07:53 NE 13 16.09 Clear CLR 20 17     84%     1012.5 1012.1      
Jun 08 00:53 Calm 16.09 Clear CLR 20 19     96%     1010.5 1009.8      
Jun 07 10:53 NE 17 16.09 Mostly Cloudy BKN019 BKN024 BKN032 26 21     74%   28 1007.8 1007.2      
Notice The following observation data may not be complete
Jun 06 03:28   12.87 Partly Cloudy FEW002 SCT015          %              
Jun 05 22:53 Calm 16.09 Cloudy SCT024 BKN050 OVC095 22 22     100%   23 1010.5 1010      
Jun 05 16:53 S 13 16.09 Mostly Clear FEW032 27 22     72%   29 1009.2 1008.5      
Jun 05 15:53 SSE 13 16.09 Mostly Clear FEW018 26 23     82%   28 1009.2 1008.5   0  
Jun 05 14:32 S 8 16.09 Mostly Clear FEW007 24 23     94%   25 1010.5   0